Regional Weather Roundup
Issued by NWS

Home | Current Version | Previous Version | Text Only | Print | Product List | Glossary Off
Versions: 1 2 3 4 5 6 7 8 9 10 11 12 13 14 15 16 17 18 19 20 21 22 23 24 25 26 27 28 29 30 31 32 33 34 35 36 37 38 39 40 41 42 43 44 45 46 47 48 49 50

000
ASUS43 KDTX 191401
RWRMI
MICHIGAN HOURLY REGIONAL WEATHER ROUNDUP
NATIONAL WEATHER SERVICE DETROIT/PONTIAC MI
900 AM EST SUN FEB 19 2017

NOTE: "FAIR" INDICATES FEW OR NO CLOUDS BELOW 12,000 FEET WITH NO
SIGNIFICANT WEATHER AND/OR OBSTRUCTION TO VISIBILITY.

MIZ047>049-052>055-059>063-066>070-074>076-081>083-191500-
SOUTHEAST LOWER MICHIGAN

CITY           SKY/WX    TMP DP  RH WIND       PRES   REMARKS
ADRIAN         CLOUDY    41  35  79 NW6       29.99R
ALMA           CLOUDY    40  34  78 W3        29.97R
ANN ARBOR      CLOUDY    45  35  68 SW3       29.96R
BAD AXE        SUNNY     39  34  83 W3        29.94R
CARO           SUNNY     38  36  89 CALM      29.94R
DETROIT CITY   CLOUDY    45  36  70 W5        29.95R
DETROIT        CLOUDY    45  35  68 W6        29.97R
FLINT          SUNNY     41  34  76 W5        29.96R
GROSSE ILE     CLOUDY    43  36  78 W6        29.96R
HILLSDALE      CLOUDY    39  36  87 W5        29.98R
HOWELL         CLOUDY    41  34  75 W5        29.96R

CITY           SKY/WX    TMP DP  RH WIND       PRES   REMARKS
JACKSON        CLOUDY    40  35  83 W7        29.98R
LAMBERTVILLE   CLOUDY    45  38  77 W7        29.98R
LANSING        CLOUDY    43  32  65 W6        29.98R
LAPEER         FAIR      40  35  80 W5        29.95R
MASON          MOSUNNY   41  35  79 W3        29.98R
MONROE         CLOUDY    42  38  85 NW6       29.96R
MT. CLEMENS    PTSUNNY   44  36  73 W3        29.93R
PONTIAC        CLOUDY    38  32  79 W7        29.94R WCI  33
PORT HOPE        N/A     43  33  68 W8        29.91R
PORT HURON     CLOUDY    41  36  81 NW6       29.94R
TRI CITIES     CLOUDY    42  36  79 W8        29.96R
MIDLAND        FAIR      39  33  78 W3        29.96R
TROY           PTSUNNY   46  32  59 W7        29.96R
SAGINAW HB     SUNNY     45  32  61 W6        29.95R
$$
MIZ043>046-050>051-056>058-064>065-071>073-077>080-191500-
SOUTHWEST LOWER MICHIGAN

CITY           SKY/WX    TMP DP  RH WIND       PRES   REMARKS
BATTLE CREEK   CLOUDY    43  36  76 W6        30.00R
BENTON HARBOR  SUNNY     35  31  85 CALM      30.03R FOG
BIG RAPIDS     SUNNY     32  30  94 CALM      29.98R
COLDWATER      MOSUNNY   38  38 100 CALM      30.00R FOG
FREMONT        FAIR      32  32 100 CALM      30.00R FOG
HOLLAND        SUNNY     40  35  83 CALM      30.01R
GRAND RAPIDS   MOSUNNY   40  34  79 W5        30.00R
IONIA          FAIR      39  33  78 W7        29.98R WCI  34
KALAMAZOO      MOSUNNY   38  33  82 W3        30.01R
LUDINGTON      SUNNY     36  35  98 CALM      30.00R
MARSHALL       CLOUDY    39  35  87 CALM      29.99R
MOUNT PLEASANT CLOUDY    41  32  70 W5        29.96R
MUSKEGON       MOSUNNY   38  35  89 CALM      30.01R
SOUTH HAVEN    SUNNY     33  33  96 CALM      30.02R FOG
$$
MIZ016>042-191500-
NORTHERN LOWER MICHIGAN

CITY           SKY/WX    TMP DP  RH WIND       PRES   REMARKS
ALPENA         SUNNY     41  32  70 NW8       29.92R
BEAVER ISLAND  PTSUNNY   39  32  77 NW6       29.96R WCI  34
BELLAIRE       SUNNY     27  26  99 CALM      29.97R
CADILLAC       SUNNY     31  29  92 CALM      29.96R
CHARLEVOIX     SUNNY     39  33  79 W8        29.99R WCI  33
FRANKFORT      SUNNY     32  31  96 CALM      29.99R
GAYLORD        SUNNY     39  29  67 NW3       29.93R
GRAYLING       SUNNY     36  31  81 W5        29.95R WCI  32
HARBOR SPRINGS MOSUNNY   33  32  94 CALM      29.95R
HOUGHTON LAKE  SUNNY     38  29  70 W5        29.95R WCI  34
MANISTEE       SUNNY     36  33  89 CALM      29.99R
OSCODA         CLOUDY    38  32  80 W5        29.92R WCI  34
PELLSTON       MOSUNNY   38  29  70 NW9       29.95R WCI  31
ROGERS CITY    SUNNY     41  31  69 W7        29.93R
TRAVERSE CITY  MOSUNNY   35  31  85 CALM      29.96R
$$
MIZ007>008-015-191500-
EASTERN UPPER MICHIGAN

CITY           SKY/WX    TMP DP  RH WIND       PRES   REMARKS
KINROSS        MOSUNNY   35  30  82 NW6       29.92R WCI  30
MACKINAC ISLAN PTSUNNY   34  30  85 W9        29.94R WCI  27
NEWBERRY       MOSUNNY   36  31  84 NW5       29.94R WCI  32
S. S. MARIE    MOSUNNY   36  31  82 W7        29.90R WCI  30
MUNISING         N/A     37  32  82 NW10      29.96R WCI  30
$$
MIZ004>006-011>014-085-191500-
CENTRAL UPPER MICHIGAN

CITY           SKY/WX    TMP DP  RH WIND       PRES   REMARKS
MANISTIQUE     CLOUDY    37  33  85 NW3       29.96R
ESCANABA       CLOUDY    40  31  70 W3        29.99R
MENOMINEE      MOSUNNY   39  30  70 CALM      30.00R
SAWYER-GWINN   SUNNY     32  28  86 N7        29.97R WCI  26
$$
MIZ001>003-009>011-084-191500-
WESTERN UPPER MICHIGAN

CITY           SKY/WX    TMP DP  RH WIND       PRES   REMARKS
IRON MOUNTAIN  CLOUDY    33  26  75 CALM      29.96R
HOUGHTON       CLOUDY    33  28  81 N8        29.96R WCI  26
COPPER HARBOR    N/A     37  31  78 N7        29.97R WCI  32
IRONWOOD       CLOUDY    29  27  92 CALM      29.98R
$$

ABBREVIATIONS USED IN REMARKS
   TC - TEMPERATURE IN CELSIUS
  WCI - WIND CHILL INDEX
   HX - HEAT INDEX
  VSB - VISIBILITY




USA.gov is the U.S. government's official web portal to all federal, state and local government web resources and services.